Weather in Magnitogorsk

Russia / Chelyabinsk Oblast     53°24′25″N   58°58′45″E
temp.,
°C
wind,
m/s
gust,
m/s
humid.,
%
clouds,
%
prec.,
mm/h
press.,
hPa
HPBL,
m
9 december, thu
thu923:00−11s4889100 0.0 1040184
02:00−12s488899 0.0 1041191
05:00−12s3785100 0.0 1040160
08:00−12s3783100 0.0 1040163
11:00−11s3878100 0.0 1040196
14:00−10s31073100 0.0 1039248
17:00−11s3781100 0.0 1038140
20:00−12s2586100 0.0 1037113
10 december, fri
fri1023:00−13s1386100 0.0 103667
02:00−12s2680100 0.0 1035159
05:00−12s2480100 0.0 103393
08:00−12s2380100 0.0 103267
11:00−10ssw2375100 0.0 103195
14:00−8s2575100 0.0 1029145
17:00−9s238889 0.0 102942
20:00−11nnw009294 0.0 102910
11 december, sat
sat1123:00−11n229027 0.0 102925
02:00−11n259093 0.0 102970
05:00−8nne5138889 0.0 1029330
08:00−9nne61487100 0.0 1031446
11:00−9nne61482100 0.0 1032530
14:00−9nne71478100 0.0 1033543
17:00−10nne614780 0.0 1035429
20:00−11nne412813 0.0 1036310
12 december, sun
sun1223:00−12n27855 0.0 1038125
02:00−12n24844 0.0 103970
05:00−13n22855 0.0 104032
08:00−13n11865 0.0 104126
11:00−11n12812 0.0 104243
14:00−8nnw11795 0.0 104221
17:00−11sw11875 0.0 104310
20:00−12wnw11905 0.0 10439
13 december, mon
mon1323:00−12wnw119119 0.0 104310
02:00−12wnw11905 0.0 104310
05:00−12wnw11895 0.0 104310
08:00−13wnw118915 0.0 104210
11:00−11w1183100 0.0 104112
14:00−8nw1180100 0.0 104011
17:00−10wsw118796 0.0 103910
20:00−11w228799 0.0 103910